Location: Newark
(5.8900°S, 42.6378°W)
Time: 13:05:13
(UTC+00:00)

A-11 Canister half - All Passes

Search period start: 23 September 2019 00:00
Search period end: 03 October 2019 00:00
Orbit: 1527 x 1682 km, 47.3° (Epoch: 22 September)

Date Brightness Start Highest point End Pass type
(mag) Time Alt. Az. Time Alt. Az. Time Alt. Az.
23 Sep - 00:51:15 10° S 00:58:15 23° SE 01:05:08 10° E visible
23 Sep - 02:54:04 10° SW 03:03:27 76° NW 03:12:43 10° NNE night (unlit)
23 Sep - 05:05:10 10° WNW 05:08:23 12° NW 05:11:36 10° NNW night (unlit)
23 Sep - 13:44:46 10° N 13:53:10 30° NE 14:01:35 10° ESE daylight
23 Sep - 15:48:08 10° NW 15:58:05 61° SW 16:08:04 10° SSE daylight
23 Sep - 18:00:55 10° WSW 18:04:18 12° SW 18:07:41 10° SSW daylight
24 Sep - 00:29:51 10° S 00:36:34 21° SE 00:43:09 10° E visible
24 Sep - 02:32:25 10° SW 02:41:51 81° NW 02:51:08 10° NE night (unlit)
24 Sep - 04:42:40 10° WNW 04:46:43 13° NW 04:50:48 10° NNW night (unlit)
24 Sep - 13:23:22 10° N 13:31:31 28° NE 13:39:40 10° ESE daylight
24 Sep - 15:26:26 10° NW 15:36:25 65° SW 15:46:28 10° SSE daylight
24 Sep - 17:38:19 10° WSW 17:42:32 13° SW 17:46:44 10° SSW daylight
25 Sep - 00:08:29 10° S 00:14:53 20° SE 00:21:08 10° E visible
25 Sep - 02:10:47 10° SW 02:20:15 86° NW 02:29:33 10° NE night (unlit)
25 Sep - 04:20:20 10° W 04:25:04 15° NW 04:29:50 10° NNW night (unlit)
25 Sep - 13:02:00 10° N 13:09:50 26° NE 13:17:42 10° ESE daylight
25 Sep - 15:04:43 10° NW 15:14:45 70° SW 15:24:52 10° SSE daylight
25 Sep - 17:15:53 10° WSW 17:20:46 14° SW 17:25:39 10° S daylight
25 Sep - 23:47:09 10° S 23:53:11 18° SE 23:59:05 10° E visible
26 Sep - 01:49:08 10° SW 01:58:38 89° SE 02:07:57 10° NE night (unlit)
26 Sep - 03:58:07 10° W 04:03:26 16° NW 04:08:45 10° NNW night (unlit)
26 Sep - 12:40:41 10° N 12:48:11 24° NE 12:55:44 10° E daylight
26 Sep - 14:43:02 10° NW 14:53:05 74° SW 15:03:15 10° SE daylight
26 Sep - 16:53:33 10° WSW 16:59:00 16° SW 17:04:28 10° S daylight
26 Sep - 23:25:50 10° S 23:31:28 17° SE 23:37:00 10° ESE visible
27 Sep - 01:27:31 10° SW 01:37:02 84° SE 01:46:20 10° NE visible
27 Sep - 03:35:59 10° W 03:41:47 18° NW 03:47:35 10° N night (unlit)
27 Sep - 12:19:22 10° N 12:26:30 22° NE 12:33:42 10° E daylight
27 Sep - 14:21:22 10° NW 14:31:26 79° SW 14:41:38 10° SE daylight
27 Sep - 16:31:19 10° WSW 16:37:15 17° SW 16:43:13 10° S daylight
27 Sep - 23:04:34 10° S 23:09:45 16° SE 23:14:51 10° ESE visible
28 Sep - 01:05:55 10° SW 01:15:25 79° SE 01:24:43 10° NE visible
28 Sep - 03:13:54 10° W 03:20:09 20° NW 03:26:23 10° N night (unlit)
28 Sep - 11:58:07 10° N 12:04:51 20° NE 12:11:37 10° E daylight
28 Sep - 13:59:42 10° NW 14:09:47 84° SW 14:20:01 10° SE daylight
28 Sep - 16:09:08 10° W 16:15:31 18° SW 16:21:55 10° S daylight
28 Sep - 22:43:21 10° S 22:48:02 14° SE 22:52:38 10° ESE visible
29 Sep - 00:44:18 10° SW 00:53:49 74° SE 01:03:05 10° NE visible
29 Sep - 02:51:53 10° W 02:58:31 22° NW 03:05:08 10° N night (unlit)
29 Sep - 11:36:54 10° N 11:43:11 18° NE 11:49:30 10° E daylight
29 Sep - 13:38:03 10° NW 13:48:07 88° SW 13:58:21 10° SE daylight
29 Sep - 15:47:00 10° W 15:53:46 20° SW 16:00:35 10° S daylight
29 Sep - 22:22:12 10° SSE 22:26:18 13° SE 22:30:19 10° ESE visible
30 Sep - 00:22:42 10° SSW 00:32:12 69° SE 00:41:25 10° NE visible
30 Sep - 02:29:54 10° W 02:36:54 23° NW 02:43:51 10° N night (unlit)
30 Sep - 11:15:45 10° NNE 11:21:30 17° NE 11:27:18 10° E daylight
30 Sep - 13:16:26 10° NW 13:26:29 87° NE 13:36:42 10° SE daylight
30 Sep - 15:24:56 10° W 15:32:02 21° SW 15:39:12 10° S daylight
30 Sep - 22:01:11 10° SSE 22:04:33 12° SE 22:07:53 10° ESE visible
01 Oct - 00:01:06 10° SSW 00:10:35 64° SE 00:19:46 10° NE visible
01 Oct - 02:07:58 10° WSW 02:15:16 25° NW 02:22:31 10° N night (unlit)
01 Oct - 10:54:40 10° NNE 10:59:49 15° NE 11:05:01 10° E daylight
01 Oct - 12:54:49 10° NW 13:04:50 82° NE 13:15:02 10° SE daylight
01 Oct - 15:02:54 10° W 15:10:19 23° SW 15:17:49 10° S daylight
01 Oct - 21:40:24 10° SSE 21:42:48 11° SE 21:45:11 10° SE visible
01 Oct - 23:39:31 10° SSW 23:48:57 60° SE 23:58:06 10° NE visible
02 Oct - 01:46:03 10° WSW 01:53:39 28° NW 02:01:11 10° N visible
02 Oct - 10:33:42 10° NNE 10:38:09 14° NE 10:42:37 10° ENE daylight
02 Oct - 12:33:13 10° NW 12:43:11 77° NE 12:53:21 10° SE daylight
02 Oct - 14:40:53 10° W 14:48:36 25° SW 14:56:24 10° S daylight
02 Oct - 21:20:43 10° SE 21:21:02 10° SE 21:21:21 10° SE visible
02 Oct - 23:17:56 10° SSW 23:27:19 56° SE 23:36:24 10° NE visible
